Philadelphia, Tennessee, United States (37846)
Lat: 35.68N, Lon: 84.4W
Wx Zone: TNZ068
Local Info
Past Weather Observations for Today

NOTE: This archive is for the closest National Weather Service station to Philadelphia. Information may differ from the station used for current weather conditions.

Click here for Long-term Archive

Time Weather Temperature Dewpoint Humidity Pressure Winds Precip Visibility
20:53
Clear
79°F / 26°C 68°F / 20°C 70% 30.06 in
(1018 mb)
SW 3.5 mph
(SW 6 kph)
- 10SM
19:53
Clear
79°F / 26°C 70°F / 21°C 74% 30.06 in
(1018 mb)
SW 5.8 mph
(SW 9 kph)
- 10SM
18:53
Partly Cloudy
81°F / 27°C 68°F / 20°C 66% 30.06 in
(1018 mb)
SW 4.6 mph
(SW 7 kph)
- 10SM
17:53
Partly Cloudy
82°F / 28°C 66°F / 19°C 58% 30.09 in
(1019 mb)
SSW 10.4 mph
(SSW 17 kph)
- 10SM
16:53
Mostly Cloudy
84°F / 29°C 68°F / 20°C 58% 30.09 in
(1019 mb)
SW 8.1 mph
(SW 13 kph)
- 10SM
15:53
Mostly Cloudy
84°F / 29°C 66°F / 19°C 55% 30.09 in
(1019 mb)
SW 6.9 mph
(SW 11 kph)
- 10SM
14:53
Mostly Cloudy
82°F / 28°C 66°F / 19°C 58% 30.12 in
(1020 mb)
SSW 10.4 mph
(SSW 17 kph)
- 10SM
13:53
Mostly Cloudy
82°F / 28°C 68°F / 20°C 62% 30.12 in
(1020 mb)
SSW 8.1 mph
(SSW 13 kph)
- 10SM
12:53
Mostly Cloudy
81°F / 27°C 68°F / 20°C 66% 30.15 in
(1021 mb)
SW 6.9 mph
(SW 11 kph)
- 10SM
11:53
Mostly Cloudy
79°F / 26°C 70°F / 21°C 74% 30.18 in
(1022 mb)
SSW 6.9 mph
(SSW 11 kph)
- 10SM
11:08
Mostly Cloudy
75°F / 24°C 70°F / 21°C 83% 30.18 in
(1022 mb)
SW 5.8 mph
(SW 9 kph)
- 10SM
10:53
Mostly Cloudy
75°F / 24°C 70°F / 21°C 83% 30.18 in
(1022 mb)
SW 4.6 mph
(SW 7 kph)
- 10SM
10:16
Overcast
73°F / 23°C 68°F / 20°C 83% 30.18 in
(1022 mb)
SW 6.9 mph
(SW 11 kph)
- 10SM
09:53
Overcast
73°F / 23°C 68°F / 20°C 83% 30.15 in
(1021 mb)
SW 5.8 mph
(SW 9 kph)
- 10SM
08:53
Overcast
72°F / 22°C 68°F / 20°C 88% 30.15 in
(1021 mb)
SW 6.9 mph
(SW 11 kph)
- 10SM
07:53
Overcast
72°F / 22°C 66°F / 19°C 83% 30.15 in
(1021 mb)
SW 9.2 mph
(SW 15 kph)
- 10SM
06:53
Overcast
70°F / 21°C 66°F / 19°C 88% 30.15 in
(1021 mb)
SSW 4.6 mph
(SSW 7 kph)
- 10SM
06:01
Overcast
70°F / 21°C 66°F / 19°C 88% 30.12 in
(1020 mb)
SW 4.6 mph
(SW 7 kph)
- 10SM
05:53
Overcast
70°F / 21°C 66°F / 19°C 88% 30.12 in
(1020 mb)
SW 5.8 mph
(SW 9 kph)
- 10SM
04:53
Overcast
68°F / 20°C 66°F / 19°C 94% 30.09 in
(1019 mb)
W 3.5 mph
(W 6 kph)
- 10SM
04:06
Mostly Cloudy
66°F / 19°C 64°F / 18°C 94% 30.09 in
(1019 mb)
SW 3.5 mph
(SW 6 kph)
- 10SM
03:53
Partly Cloudy
66°F / 19°C 64°F / 18°C 94% 30.09 in
(1019 mb)
SW 3.5 mph
(SW 6 kph)
- 10SM
03:46
Mostly Cloudy
66°F / 19°C 64°F / 18°C 94% 30.09 in
(1019 mb)
SW 3.5 mph
(SW 6 kph)
- 10SM
02:53
Partly Cloudy
68°F / 20°C 64°F / 18°C 88% 30.06 in
(1018 mb)
SSW 4.6 mph
(SSW 7 kph)
- 9SM
01:53
Partly Cloudy
70°F / 21°C 64°F / 18°C 83% 30.09 in
(1019 mb)
NW 4.6 mph
(NW 7 kph)
- 10SM
00:53
Mostly Cloudy
70°F / 21°C 66°F / 19°C 88% 30.09 in
(1019 mb)
W 4.6 mph
(W 7 kph)
- 10SM
Time Weather Temperature Dewpoint Humidity Pressure Winds Precip Visibility


Weather for websites

WeatherForYou.com, LLC is not responsible for any damages or problems caused by this service. Current weather conditions are obtained from the closest station including government and personal stations which may have varying degrees of accuracy. Weather forecasts are derived from the NOAA NDFD. Like all things, this site belongs to Jesus Christ... He just trusts us to maintain it. If you have any questions or comments email webmaster@weatherforyou.com

Copyright © 2015, WeatherForYou.com LLC. All rights reserved.